This is the latest recevied weather packets stored in our database for station/object WB4E-13. If no packets are shown the sender has not sent any weather packets the latest 10 day(s).
| Time | Temp. | Humidity | Pressure | Rain* | Wind** | Luminosity | Snow |
|---|---|---|---|---|---|---|---|
| 1777319629 | 27.78° C | 44% | 1013 hPa | 0 mm | - | - | - |
| 1777319029 | 27.22° C | 47% | 1013.1 hPa | 0 mm | - | - | - |
| 1777318556 | 26.67° C | 49% | 1013.2 hPa | 0 mm | - | - | - |
| 1777318429 | 26.67° C | 49% | 1013.2 hPa | 0 mm | - | - | - |
| 1777317828 | 26.11° C | 52% | 1013.2 hPa | 0 mm | - | - | - |
| 1777317228 | 26.11° C | 52% | 1013.2 hPa | 0 mm | - | - | - |
| 1777316628 | 26.11° C | 51% | 1013.2 hPa | 0 mm | - | - | - |
| 1777316028 | 26.67° C | 53% | 1013.3 hPa | 0 mm | - | - | - |
| 1777315428 | 26.67° C | 52% | 1013.3 hPa | 0 mm | - | - | - |
| 1777314827 | 26.67° C | 52% | 1013.4 hPa | 0 mm | - | - | - |
| 1777314227 | 26.11° C | 52% | 1013.4 hPa | 0 mm | - | - | - |
| 1777313627 | 26.11° C | 57% | 1013.8 hPa | 0 mm | - | - | - |
| 1777313027 | 26.11° C | 56% | 1014 hPa | 0 mm | - | - | - |
| 1777312426 | 26.11° C | 58% | 1014.1 hPa | 0 mm | - | - | - |
| 1777311826 | 25.56° C | 55% | 1014.4 hPa | 0 mm | - | - | - |
| 1777311226 | 25.56° C | 58% | 1014.6 hPa | 0 mm | - | - | - |
| 1777310626 | 25° C | 61% | 1014.8 hPa | 0 mm | - | - | - |
| 1777310025 | 25° C | 59% | 1014.7 hPa | 0 mm | - | - | - |
| 1777309425 | 25° C | 60% | 1015.1 hPa | 0 mm | - | - | - |
| 1777308825 | 24.44° C | 62% | 1015.2 hPa | 0 mm | - | - | - |
| 1777308225 | 24.44° C | 62% | 1015.2 hPa | 0 mm | - | - | - |
| 1777307625 | 24.44° C | 62% | 1015.2 hPa | 0 mm | - | - | - |
| 1777307024 | 23.33° C | 64% | 1015.4 hPa | 0 mm | - | - | - |
| 1777306429 | 23.33° C | 65% | 1015.7 hPa | 0 mm | - | - | - |
| 1777305829 | 22.78° C | 67% | 1015.9 hPa | 0 mm | - | - | - |
* Rain latest hour (hover to see other rain measurements)
** Current wind speed in m/s (hover to see current wind gust speed)